Regional Weather Roundup
Issued by NWS

Home | Current Version | Previous Version | Graphics & Text | Print | Product List | Glossary On
Versions: 1 2 3 4 5 6 7 8 9 10 11 12 13 14 15 16 17 18 19 20 21 22 23 24 25 26 27 28 29 30 31 32 33 34 35 36 37 38 39 40 41 42 43 44 45 46 47 48 49 50
000
ASUS43 KLOT 262004
RWRIL

ILLINOIS REGIONAL WEATHER ROUNDUP
NATIONAL WEATHER SERVICE CHICAGO/ROMEOVILLE IL
300 PM CDT FRI MAY 26 2017

NOTE: "FAIR" INDICATES FEW OR NO CLOUDS BELOW 12,000 FEET WITH NO
SIGNIFICANT WEATHER AND/OR OBSTRUCTIONS TO VISIBILITY.

* THESE STATIONS ARE NOT UNDER NWS QUALITY CONTROL. THEY ALSO MAY NOT
  REPORT WEATHER SUCH AS PRECIPITATION OR FOG.

ILZ001-002-007-009-015-016-024-262100-
NORTHWEST ILLINOIS

CITY           SKY/WX    TMP DP  RH WIND       PRES   REMARKS
MOLINE         CLOUDY    68  61  78 N5        29.76F
STERLING*      LGT RAIN  64  62  93 NE9       29.76F
SAVANNA*       RAIN      62  61  96 NE9       29.80R
$$

ILZ003-004-008-010-011-017-018-262100-
NORTH CENTRAL ILLINOIS

CITY           SKY/WX    TMP DP  RH WIND       PRES   REMARKS
ROCKFORD       RAIN      65  61  87 NE7       29.82S FOG
FREEPORT*      RAIN      61  60  96 NE9       29.82F
ROCHELLE*      CLOUDY    64  60  88 E8        29.79F
DE KALB*       CLOUDY    66  58  75 E7        29.82R
PERU*          TSTM      66  62  86 SE9       29.77R
$$

ILZ005-006-012>014-019>023-262100-
NORTHEAST ILLINOIS

CITY           SKY/WX    TMP DP  RH WIND       PRES   REMARKS
CHICAGO-OHARE  CLOUDY    69  53  56 E12       29.81F
CHICAGO-MIDWAY CLOUDY    70  54  56 E12       29.82F
AURORA         CLOUDY    71  57  61 E12       29.80F
LANSING*       PTSUNNY   74  60  61 E6        29.82S
JOLIET*        CLOUDY    74  58  59 SE7       29.80S
WAUKEGAN       CLOUDY    60  53  77 E7        29.84F
DUPAGE AIRPORT CLOUDY    69  58  67 E8        29.80F
KANKAKEE*      CLOUDY    77  56  48 SE10G17   29.80F
WHEELING       CLOUDY    66  54  65 E8        29.84F
MORRIS*        CLOUDY    73  57  55 SE9       29.77S
ROMEOVILLE*    CLOUDY    72  61  67 SE10      29.80F
NORTHERLY ISL    N/A     59  51  75 NE5         N/A
$$

LMZ740>746-262100-
SOUTHERN LAKE MICHIGAN

STATION/POSITION SKY/WX   TEMP    WIND        PRES    VSBY  WAVE
                          AIR SEA DIR/SP/G                  HT/PER
                          (F)     (DEG/KT/KT) (MB)    (MI)  (FT/S)
SOUTHERN BUOY              49 47     CALM     1011.6          1
WILMETTE HARBOR            51 52                N/A           1/ 4
HARRISON CRIB              56      70/  7/  8   N/A
BURNHAM HARBOR             59     350/  3/  7   N/A
CALUMET HARBOR             57      50/  8/ 10 1010.0F
BURNS HARBOR               59      80/ 12/ 13 1010.5F
MICHIGAN CITY              57      40/  9/ 10   N/A
MICHIGAN CITY 6N           54 53   60/  8/ 10   N/A           1/ 4
ST. JOSEPH                 57 55   70/  6/ 10 1010.9F         1/ 4
$$

ILZ025>027-034>036-040-047-049-050-058-095>099-262100-
WEST-CENTRAL ILLINOIS

CITY           SKY/WX    TMP DP  RH WIND       PRES   REMARKS
QUINCY         MOSUNNY   80  66  62 W8        29.73S HX  82
GALESBURG*     CLOUDY    67  64  91 SE5       29.75S
MACOMB*        CLOUDY    67  64  88 N5        29.77F
JACKSONVILLE*  CLOUDY    79  66  63 S3        29.72S HX  81
PITTSFIELD*    MOSUNNY   81  68  65 S5        29.75R HX  83
$$

ILZ028>032-037-038-041>044-048-051>054-059>061-262100-
CENTRAL ILLINOIS

CITY           SKY/WX    TMP DP  RH WIND       PRES   REMARKS
PONTIAC        LGT RAIN  73  65  76 S13       29.77F
BLOOMINGTON    CLOUDY    75  65  70 S10       29.75F
DECATUR        PTSUNNY   81  65  58 S8        29.73F HX  83
PEORIA         TSTM      64  62  93 SW9G38    29.79R VSB 1/4
LACON*         TSTM      65  65  98 S5        29.76R VSB 3/4
LINCOLN*       MOSUNNY   81  65  59 CALM      29.72F HX  83
SPRINGFIELD    PTSUNNY   81  66  60 SE6       29.72F HX  83
TAYLORVILLE    SUNNY     83  66  56 S9        29.72F HX  85
$$

ILZ033-039-045-046-055>057-062-063-262100-
EAST-CENTRAL ILLINOIS

CITY           SKY/WX    TMP DP  RH WIND       PRES   REMARKS
CHAMPAIGN      PTSUNNY   79  65  62 S17       29.77F HX  81
RANTOUL*       PTSUNNY   77  65  64 SE14      29.77F
MATTOON        MOSUNNY   79  66  64 S14G21    29.76F HX  81
PARIS*         CLOUDY    78  66  68 SE14      29.80F
$$

ILZ079-100>102-262100-
SOUTHWEST ILLINOIS

CITY           SKY/WX    TMP DP  RH WIND       PRES   REMARKS
ALTON          CLOUDY    79  64  61 S10       29.74R HX  81
BELLEVILLE     CLOUDY    77  66  68 SW16      29.76S
CAHOKIA*       CLOUDY    79  64  60 S13       29.74R HX  81
SPARTA*        CLOUDY    75  65  71 SW14      29.79R
$$

ILZ064>066-069>071-074>076-080>082-084>086-088>090-092>094-262100-
SOUTH-CENTRAL ILLINOIS

CITY           SKY/WX    TMP DP  RH WIND       PRES   REMARKS
CARBONDALE     CLOUDY    80  66  62 SW15G25   29.77R HX  82
CAIRO*         PTSUNNY   82  62  51 S17G24    29.78F HX  82
EFFINGHAM*     MOSUNNY   83  65  55 S12G18    29.77F HX  85
MARION         CLOUDY    82  63  51 S17G25    29.78  HX  83
MT. VERNON       N/A     79  64  60 S8        29.78F HX  81
CENTRALIA*     CLOUDY    79  66  65 S9        29.77F HX  81
SALEM*         CLOUDY    80  64  57 S10       29.77F HX  81
$$

ILZ067-068-072-073-078-083-087-091-262100-
SOUTHEAST ILLINOIS

CITY           SKY/WX    TMP DP  RH WIND       PRES   REMARKS
LAWRENCEVILLE  MOSUNNY   81  65  58 S13       29.80F HX  83
FLORA*         CLOUDY    83  62  49 S16       29.78F HX  84
FAIRFIELD*     CLOUDY    80  60  51 S7        29.78F HX  81
HARRISBURG*    SUNNY     85  61  43 SW22G28   29.79S HX  85
ROBINSON*      MOSUNNY   80  67  64 S16       29.79F HX  82
CARMI*         MOSUNNY   83  62  48 S13       29.79F HX  84
$$

ABBREVIATIONS USED IN REMARKS
   TC - TEMPERATURE IN CELSIUS
  WCI - WIND CHILL INDEX
   HX - HEAT INDEX
  VSB - VISIBILITY
$$





USA.gov is the U.S. government's official web portal to all federal, state and local government web resources and services.